OPS 7684

导读 | 星芒AI

OPS 7684 是一颗美国空军运营的轨道预测卫星,属于操作性太空(OPS)系列。该卫星主要用于轨道监测和空间态势感知任务,帮助追踪其他卫星和太空碎片。其具体发射日期和详细功能未完全公开,但该系列卫星通常用于支持军事和国家安全相关的太空活动。OPS 7684 在近地轨道运行,为美军提供关键的太空监视能力,确保轨道环境的安全与稳定。

基本信息
目录编号:
3605
目录名称:
OPS 7684
国际标识:
1968-112B
轨道中心:
EARTH
卫星名称:
OPS 7684
卫星全名:
--
卫星状态:
在轨 (已飞行20775 天)
发射日期:
1968-12-12 UTC
国别 :
美国 (US)
星等 :
--
轨道信息
数据来源 国际轨道数据
星历时间: 2025-10-28T20:02:21+0800
19小时前
查看轨道信息
半长轴: 7798.12km
偏心率: 0.0053913
轨道倾角: 80.359°
近地点辐角 257.529°
升交点赤经 306.161°
平近点角 258.589°
近地点: 1377.942km
远地点: 1462.028km
周期: 114.221分钟
每日圈数: 12.60718
详细信息
使用方式:
暂无
2D轨道图
3D轨道图
轨道高度分析图
轨道倾角分析图
轨道综合分析图
查看轨道综合分析图